^^
Station Historical Data
Daily Summary for May 4, 2017 Units:  English    Metric   Both
« Previous Day
Next Day »
Daily Weekly Monthly Yearly Custom
  High: Low: Average:
Temperature: 64.8 °F 40.1 °F 52.7 °F
Dew Point: 43.7 °F 33.2 °F 36.6 °F
Humidity: 82 % 36 % 56 %
Wind Speed: 7.4 mph 0.0 mph 0.5 mph
Wind Gust: 12.7 mph - -
Wind:- - SE
Pressure: 30.28 in 30.07 in -
Precipitation: 0.00 in    
Historical Graphs
 
 
Tabular Data for May 4, 2017
Time Temperature Dew Point Pressure Wind Wind Speed Wind Gust Humidity Rainfall Rate (Hourly) solar Conditions
00:00 47.0 °F 33.8 °F 30.22 in Calm     60 % 0.00 in 0.0 W/m2 SCT
00:05 46.8 °F 34.5 °F 30.22 in Calm     62 % 0.00 in 0.0 W/m2 SCT
00:10 46.6 °F 34.3 °F 30.22 in Calm     62 % 0.00 in 0.0 W/m2 SCT
00:15 46.4 °F 34.1 °F 30.22 in Calm     62 % 0.00 in 0.0 W/m2 SCT
00:20 46.5 °F 34.6 °F 30.22 in Calm     63 % 0.00 in 0.0 W/m2 SCT
00:25 46.5 °F 34.2 °F 30.22 in Calm     62 % 0.00 in 0.0 W/m2 SCT
00:30 46.6 °F 34.3 °F 30.22 in Calm     62 % 0.00 in 0.0 W/m2 SCT
00:35 46.4 °F 33.7 °F 30.23 in Calm     61 % 0.00 in 0.0 W/m2 SCT
00:40 46.2 °F 33.5 °F 30.22 in Calm     61 % 0.00 in 0.0 W/m2 SCT
00:45 45.8 °F 33.5 °F 30.22 in Calm     62 % 0.00 in 0.0 W/m2 SCT
00:50 45.3 °F 33.4 °F 30.22 in Calm     63 % 0.00 in 0.0 W/m2 SCT
00:55 45.1 °F 33.6 °F 30.22 in Calm     64 % 0.00 in 0.0 W/m2 SCT
01:00 45.1 °F 33.6 °F 30.22 in Calm     64 % 0.00 in 0.0 W/m2 SCT
01:02 45.1 °F 33.6 °F 30.22 in Calm     64 % 0.00 in 0.0 W/m2 SCT
01:07 44.7 °F 33.6 °F 30.22 in Calm     65 % 0.00 in 0.0 W/m2 SCT
01:12 44.2 °F 33.2 °F 30.22 in Calm     65 % 0.00 in 0.0 W/m2 SCT
01:17 44.3 °F 34.0 °F 30.22 in Calm     67 % 0.00 in 0.0 W/m2 SCT
01:22 44.8 °F 34.1 °F 30.23 in Calm     66 % 0.00 in 0.0 W/m2 SCT
01:27 44.7 °F 34.4 °F 30.23 in Calm     67 % 0.00 in 0.0 W/m2 SCT
01:32 44.5 °F 34.2 °F 30.23 in Calm     67 % 0.00 in 0.0 W/m2 SCT
01:37 44.4 °F 34.5 °F 30.22 in Calm     68 % 0.00 in 0.0 W/m2 SCT
01:42 43.8 °F 33.9 °F 30.22 in Calm     68 % 0.00 in 0.0 W/m2 SCT
01:47 43.7 °F 34.2 °F 30.23 in Calm     69 % 0.00 in 0.0 W/m2 SCT
01:52 43.8 °F 34.3 °F 30.22 in Calm     69 % 0.00 in 0.0 W/m2 SCT
01:57 43.8 °F 34.3 °F 30.22 in Calm     69 % 0.00 in 0.0 W/m2 SCT
02:02 43.6 °F 34.1 °F 30.22 in Calm     69 % 0.00 in 0.0 W/m2 SCT
02:07 43.6 °F 33.7 °F 30.22 in Calm     68 % 0.00 in 0.0 W/m2 SCT
02:12 43.2 °F 33.7 °F 30.22 in Calm     69 % 0.00 in 0.0 W/m2 SCT
02:17 43.0 °F 33.5 °F 30.22 in Calm     69 % 0.00 in 0.0 W/m2 SCT
02:22 43.2 °F 33.7 °F 30.22 in Calm     69 % 0.00 in 0.0 W/m2 SCT
02:27 42.6 °F 33.5 °F 30.22 in Calm     70 % 0.00 in 0.0 W/m2 SCT
02:32 42.4 °F 34.0 °F 30.23 in Calm     72 % 0.00 in 0.0 W/m2 SCT
02:37 42.4 °F 34.4 °F 30.22 in Calm     73 % 0.00 in 0.0 W/m2 SCT
02:42 42.2 °F 34.2 °F 30.23 in Calm     73 % 0.00 in 0.0 W/m2 SCT
02:47 41.8 °F 34.1 °F 30.23 in Calm     74 % 0.00 in 0.0 W/m2 SCT
02:52 41.7 °F 34.0 °F 30.23 in Calm     74 % 0.00 in 0.0 W/m2 SCT
02:57 41.6 °F 33.9 °F 30.23 in Calm     74 % 0.00 in 0.0 W/m2 SCT
03:02 41.1 °F 33.8 °F 30.23 in Calm     75 % 0.00 in 0.0 W/m2 SCT
03:07 40.9 °F 33.9 °F 30.23 in Calm     76 % 0.00 in 0.0 W/m2 SCT
03:12 41.1 °F 34.4 °F 30.23 in Calm     77 % 0.00 in 0.0 W/m2 SCT
03:17 41.2 °F 34.5 °F 30.23 in Calm     77 % 0.00 in 0.0 W/m2 SCT
03:22 40.9 °F 33.9 °F 30.23 in Calm     76 % 0.00 in 0.0 W/m2 SCT
03:27 40.9 °F 34.2 °F 30.23 in Calm     77 % 0.00 in 0.0 W/m2 SCT
03:32 40.7 °F 34.0 °F 30.23 in Calm     77 % 0.00 in 0.0 W/m2 SCT
03:37 40.3 °F 33.7 °F 30.22 in Calm     77 % 0.00 in 0.0 W/m2 SCT
03:42 40.2 °F 33.9 °F 30.22 in Calm     78 % 0.00 in 0.0 W/m2 SCT
03:47 40.1 °F 33.5 °F 30.22 in Calm     77 % 0.00 in 0.0 W/m2 SCT
03:52 40.3 °F 33.7 °F 30.22 in Calm     77 % 0.00 in 0.0 W/m2 SCT
03:58 40.5 °F 33.9 °F 30.22 in Calm     77 % 0.00 in 0.0 W/m2 SCT
04:03 40.8 °F 34.1 °F 30.22 in Calm     77 % 0.00 in 0.0 W/m2 SCT
04:08 40.8 °F 34.1 °F 30.23 in Calm     77 % 0.00 in 0.0 W/m2 SCT
04:13 40.7 °F 34.4 °F 30.23 in Calm     78 % 0.00 in 0.0 W/m2 SCT
04:18 40.6 °F 34.3 °F 30.24 in Calm     78 % 0.00 in 0.0 W/m2 SCT
04:23 40.5 °F 34.5 °F 30.24 in Calm     79 % 0.00 in 0.0 W/m2 SCT
04:28 40.5 °F 34.8 °F 30.24 in Calm     80 % 0.00 in 0.0 W/m2 SCT
04:33 40.4 °F 34.7 °F 30.23 in Calm     80 % 0.00 in 0.0 W/m2 SCT
04:38 40.5 °F 34.8 °F 30.24 in Calm     80 % 0.00 in 0.0 W/m2 SCT
04:43 41.1 °F 35.4 °F 30.23 in Calm     80 % 0.00 in 0.0 W/m2 SCT
04:48 41.1 °F 35.4 °F 30.23 in Calm     80 % 0.00 in 0.0 W/m2 SCT
04:53 41.2 °F 35.2 °F 30.23 in Calm     79 % 0.00 in 0.0 W/m2 SCT
04:58 41.5 °F 35.5 °F 30.24 in Calm     79 % 0.00 in 0.0 W/m2 SCT
05:03 41.5 °F 35.5 °F 30.24 in Calm     79 % 0.00 in 0.0 W/m2 SCT
05:08 41.5 °F 35.5 °F 30.24 in Calm     79 % 0.00 in 0.0 W/m2 SCT
05:13 41.6 °F 35.6 °F 30.24 in Calm     79 % 0.00 in 0.0 W/m2 SCT
05:18 41.8 °F 35.8 °F 30.23 in Calm     79 % 0.00 in 0.0 W/m2 SCT
05:23 42.0 °F 35.6 °F 30.23 in Calm     78 % 0.00 in 0.0 W/m2 SCT
05:28 42.0 °F 35.6 °F 30.23 in Calm     78 % 0.00 in 0.0 W/m2 SCT
05:33 42.1 °F 35.7 °F 30.23 in Calm     78 % 0.00 in 0.0 W/m2 SCT
05:38 42.2 °F 35.5 °F 30.24 in Calm     77 % 0.00 in 0.0 W/m2 SCT
05:43 42.4 °F 35.4 °F 30.24 in Calm     76 % 0.00 in 0.0 W/m2 SCT
05:48 42.5 °F 35.1 °F 30.24 in Calm     75 % 0.00 in 0.0 W/m2 SCT
05:53 42.7 °F 35.7 °F 30.24 in Calm     76 % 0.00 in 0.0 W/m2 SCT
05:58 42.5 °F 35.5 °F 30.24 in Calm     76 % 0.00 in 0.0 W/m2 SCT
06:03 42.1 °F 35.4 °F 30.24 in Calm     77 % 0.00 in 5.0 W/m2 SCT
06:08 41.6 °F 35.6 °F 30.25 in Calm     79 % 0.00 in 7.0 W/m2 SCT
06:13 41.2 °F 35.5 °F 30.25 in Calm     80 % 0.00 in 7.0 W/m2 SCT
06:18 41.0 °F 35.6 °F 30.25 in Calm     81 % 0.00 in 9.0 W/m2 SCT
06:23 40.9 °F 35.8 °F 30.25 in Calm     82 % 0.00 in 11.0 W/m2 SCT
06:29 40.9 °F 35.8 °F 30.25 in Calm     82 % 0.00 in 14.0 W/m2 SCT
06:34 40.9 °F 35.8 °F 30.25 in Calm     82 % 0.00 in 21.0 W/m2 SCT
06:39 40.9 °F 35.8 °F 30.25 in Calm     82 % 0.00 in 35.0 W/m2 SCT
06:44 41.1 °F 35.7 °F 30.25 in Calm     81 % 0.00 in 37.0 W/m2 SCT
06:49 41.5 °F 35.8 °F 30.26 in Calm     80 % 0.00 in 32.0 W/m2 BKN
06:54 42.1 °F 36.1 °F 30.26 in Calm     79 % 0.00 in 30.0 W/m2 BKN
06:59 42.4 °F 36.0 °F 30.26 in Calm     78 % 0.00 in 35.0 W/m2 BKN
07:04 42.8 °F 36.1 °F 30.27 in Calm     77 % 0.00 in 37.0 W/m2 BKN
07:09 43.4 °F 35.7 °F 30.27 in Calm     74 % 0.00 in 42.0 W/m2 BKN
07:14 43.8 °F 35.0 °F 30.27 in Calm     71 % 0.00 in 40.0 W/m2 BKN
07:19 44.4 °F 35.2 °F 30.27 in Calm     70 % 0.00 in 35.0 W/m2 OVC
07:24 44.8 °F 35.2 °F 30.27 in Calm     69 % 0.00 in 35.0 W/m2 OVC
07:29 45.2 °F 35.3 °F 30.27 in Calm   1.2 mph 68 % 0.00 in 37.0 W/m2 OVC
07:34 45.7 °F 35.7 °F 30.27 in Calm     68 % 0.00 in 46.0 W/m2 OVC
07:39 46.0 °F 35.7 °F 30.27 in NNW 0.2 mph 1.2 mph 67 % 0.00 in 62.0 W/m2 OVC
07:44 46.5 °F 36.1 °F 30.27 in Calm     67 % 0.00 in 51.0 W/m2 OVC
07:49 46.9 °F 35.7 °F 30.27 in Calm     65 % 0.00 in 51.0 W/m2 OVC
07:54 47.3 °F 36.1 °F 30.27 in Calm     65 % 0.00 in 42.0 W/m2 OVC
07:59 48.0 °F 36.8 °F 30.27 in Calm     65 % 0.00 in 42.0 W/m2 OVC
08:04 48.6 °F 36.2 °F 30.27 in Calm     62 % 0.00 in 44.0 W/m2 OVC
08:09 48.9 °F 36.4 °F 30.27 in NNE 0.1 mph 2.3 mph 62 % 0.00 in 44.0 W/m2 OVC
08:14 49.2 °F 35.9 °F 30.28 in Calm     60 % 0.00 in 49.0 W/m2 OVC
08:19 49.7 °F 36.4 °F 30.28 in Calm     60 % 0.00 in 69.0 W/m2 OVC
08:24 50.5 °F 36.7 °F 30.28 in Calm     59 % 0.00 in 125.0 W/m2 BKN
08:30 51.4 °F 37.5 °F 30.28 in Calm     59 % 0.00 in 244.0 W/m2 SCT
08:35 51.6 °F 36.9 °F 30.28 in Calm     57 % 0.00 in 221.0 W/m2 SCT
08:40 51.2 °F 36.0 °F 30.28 in Calm   1.2 mph 56 % 0.00 in 251.0 W/m2 SCT
08:45 51.5 °F 36.8 °F 30.28 in NE 0.1 mph 1.2 mph 57 % 0.00 in 285.0 W/m2 SCT
08:50 52.2 °F 37.0 °F 30.27 in Calm   1.2 mph 56 % 0.00 in 396.0 W/m2 CLR
08:55 52.6 °F 35.5 °F 30.28 in ENE 0.3 mph 2.3 mph 52 % 0.00 in 550.0 W/m2 CLR
09:00 52.9 °F 35.7 °F 30.27 in ESE 0.7 mph 1.2 mph 52 % 0.00 in 580.0 W/m2 CLR
09:05 53.5 °F 36.3 °F 30.27 in NNE 1.6 mph 6.0 mph 52 % 0.00 in 661.0 W/m2 CLR
09:10 53.7 °F 36.0 °F 30.27 in Calm     51 % 0.00 in 628.0 W/m2 CLR
09:15 54.1 °F 35.9 °F 30.27 in Calm     50 % 0.00 in 619.0 W/m2 CLR
09:20 54.6 °F 35.8 °F 30.27 in ESE 1.4 mph 3.5 mph 49 % 0.00 in 626.0 W/m2 CLR
09:25 54.9 °F 35.0 °F 30.26 in SE 0.1 mph 3.5 mph 47 % 0.00 in 661.0 W/m2 CLR
09:30 54.8 °F 34.9 °F 30.26 in ESE 1.2 mph 3.0 mph 47 % 0.00 in 668.0 W/m2 CLR
09:35 54.8 °F 34.9 °F 30.26 in East 1.8 mph 4.6 mph 47 % 0.00 in 666.0 W/m2 CLR
09:40 55.1 °F 36.3 °F 30.26 in ENE 0.3 mph 3.5 mph 49 % 0.00 in 682.0 W/m2 CLR
09:45 55.4 °F 34.9 °F 30.26 in Calm   4.6 mph 46 % 0.00 in 693.0 W/m2 CLR
09:50 55.6 °F 34.6 °F 30.26 in East 0.8 mph 2.3 mph 45 % 0.00 in 714.0 W/m2 CLR
09:55 56.0 °F 34.9 °F 30.26 in ESE 0.4 mph 3.5 mph 45 % 0.00 in 731.0 W/m2 CLR
10:00 56.2 °F 34.6 °F 30.26 in ESE 0.9 mph 3.5 mph 44 % 0.00 in 703.0 W/m2 CLR
10:05 56.7 °F 35.0 °F 30.26 in South 0.5 mph 5.8 mph 44 % 0.00 in 761.0 W/m2 CLR
10:10 56.2 °F 35.1 °F 30.26 in Calm   3.5 mph 45 % 0.00 in 768.0 W/m2 CLR
10:15 56.6 °F 35.5 °F 30.27 in ESE 1.4 mph 5.0 mph 45 % 0.00 in 782.0 W/m2 CLR
10:20 57.0 °F 35.3 °F 30.26 in NNE 1.9 mph 2.3 mph 44 % 0.00 in 798.0 W/m2 CLR
10:25 57.1 °F 35.4 °F 30.26 in SSE 1.1 mph 4.6 mph 44 % 0.00 in 605.0 W/m2 CLR
10:30 56.8 °F 35.1 °F 30.26 in SE 1.8 mph 3.5 mph 44 % 0.00 in 599.0 W/m2 CLR
10:36 56.9 °F 35.2 °F 30.26 in South 1.9 mph 6.9 mph 44 % 0.00 in 654.0 W/m2 CLR
10:41 56.6 °F 35.5 °F 30.26 in East 1.5 mph 6.9 mph 45 % 0.00 in 406.0 W/m2 SCT
10:46 56.8 °F 35.7 °F 30.26 in South 2.9 mph 4.6 mph 45 % 0.00 in 714.0 W/m2 FEW
10:51 57.0 °F 35.9 °F 30.26 in SSW 1.7 mph 4.0 mph 45 % 0.00 in 868.0 W/m2 CLR
10:56 57.6 °F 35.8 °F 30.26 in East 1.3 mph 3.5 mph 44 % 0.00 in 891.0 W/m2 CLR
11:01 57.8 °F 36.0 °F 30.26 in ESE 0.1 mph 3.5 mph 44 % 0.00 in 895.0 W/m2 CLR
11:06 58.6 °F 36.7 °F 30.26 in ESE 0.7 mph 3.5 mph 44 % 0.00 in 923.0 W/m2 CLR
11:11 58.7 °F 36.8 °F 30.26 in South 0.2 mph 2.0 mph 44 % 0.00 in 977.0 W/m2 CLR
11:16 59.3 °F 36.2 °F 30.25 in ESE 0.7 mph 3.5 mph 42 % 0.00 in 877.0 W/m2 CLR
11:21 58.8 °F 35.7 °F 30.25 in Calm   1.2 mph 42 % 0.00 in 547.0 W/m2 FEW
11:26 59.1 °F 36.6 °F 30.25 in SSE 0.5 mph 3.5 mph 43 % 0.00 in 747.0 W/m2 CLR
11:31 58.4 °F 35.4 °F 30.25 in South 1.0 mph 9.2 mph 42 % 0.00 in 475.0 W/m2 SCT
11:36 58.5 °F 36.6 °F 30.25 in South 0.2 mph 2.3 mph 44 % 0.00 in 468.0 W/m2 SCT
11:41 58.4 °F 36.6 °F 30.24 in SSE 0.8 mph 3.5 mph 44 % 0.00 in 469.0 W/m2 SCT
11:46 58.2 °F 36.9 °F 30.24 in South 0.6 mph 2.3 mph 45 % 0.00 in 469.0 W/m2 SCT
11:51 58.6 °F 36.2 °F 30.24 in SSW 1.1 mph 4.6 mph 43 % 0.00 in 582.0 W/m2 FEW
11:56 58.6 °F 33.7 °F 30.24 in South 0.5 mph 3.5 mph 39 % 0.00 in 615.0 W/m2 FEW
12:01 59.0 °F 35.3 °F 30.23 in East 1.1 mph 3.5 mph 41 % 0.00 in 615.0 W/m2 FEW
12:06 60.1 °F 37.5 °F 30.23 in East 1.2 mph 5.8 mph 43 % 0.00 in 886.0 W/m2 CLR
12:11 60.2 °F 37.6 °F 30.23 in Calm   1.2 mph 43 % 0.00 in 751.0 W/m2 CLR
12:16 60.1 °F 37.5 °F 30.23 in ESE 0.3 mph 2.0 mph 43 % 0.00 in 682.0 W/m2 FEW
12:21 59.9 °F 36.7 °F 30.22 in Calm     42 % 0.00 in 759.0 W/m2 CLR
12:26 60.1 °F 37.5 °F 30.22 in South 0.8 mph 3.5 mph 43 % 0.00 in 780.0 W/m2 CLR
12:31 60.3 °F 38.3 °F 30.22 in ESE 0.5 mph 5.8 mph 44 % 0.00 in 480.0 W/m2 SCT
12:36 60.0 °F 36.2 °F 30.22 in ESE 2.4 mph 8.1 mph 41 % 0.00 in 626.0 W/m2 FEW
12:41 60.2 °F 35.8 °F 30.21 in SE 0.3 mph 3.5 mph 40 % 0.00 in 497.0 W/m2 FEW
12:46 59.7 °F 34.7 °F 30.21 in ESE 0.9 mph 2.3 mph 39 % 0.00 in 761.0 W/m2 FEW
12:51 60.6 °F 36.1 °F 30.21 in ESE 0.2 mph   40 % 0.00 in 573.0 W/m2 CLR
12:56 60.9 °F 37.0 °F 30.21 in SE 1.3 mph 5.8 mph 41 % 0.00 in 926.0 W/m2 CLR
13:01 61.9 °F 37.9 °F 30.20 in SSE 0.8 mph 3.5 mph 41 % 0.00 in 872.0 W/m2 CLR
13:06 62.0 °F 36.7 °F 30.20 in SSE 1.0 mph 3.5 mph 39 % 0.00 in 795.0 W/m2 CLR
13:11 61.8 °F 37.2 °F 30.20 in ESE 0.7 mph 3.5 mph 40 % 0.00 in 749.0 W/m2 CLR
13:16 61.6 °F 37.0 °F 30.20 in East 2.7 mph 3.5 mph 40 % 0.00 in 710.0 W/m2 CLR
13:21 61.5 °F 36.9 °F 30.19 in ESE 0.1 mph 3.5 mph 40 % 0.00 in 691.0 W/m2 FEW
13:26 62.1 °F 36.8 °F 30.19 in ENE 2.0 mph 12.0 mph 39 % 0.00 in 744.0 W/m2 FEW
13:31 62.3 °F 37.7 °F 30.18 in South 0.2 mph 2.3 mph 40 % 0.00 in 610.0 W/m2 FEW
13:36 61.7 °F 37.1 °F 30.18 in ESE 0.1 mph 1.0 mph 40 % 0.00 in 735.0 W/m2 FEW
13:41 62.7 °F 38.0 °F 30.18 in NE 2.2 mph 4.6 mph 40 % 0.00 in 694.0 W/m2 FEW
13:47 62.9 °F 37.5 °F 30.17 in South 2.1 mph 2.3 mph 39 % 0.00 in 772.0 W/m2 CLR
13:52 63.1 °F 37.7 °F 30.18 in ESE 5.6 mph 10.4 mph 39 % 0.00 in 612.0 W/m2 FEW
13:57 62.7 °F 38.0 °F 30.17 in SSE 2.7 mph 6.9 mph 40 % 0.00 in 577.0 W/m2 SCT
14:02 62.8 °F 37.5 °F 30.18 in ESE 3.0 mph 6.9 mph 39 % 0.00 in 350.0 W/m2 BKN
14:07 61.9 °F 36.7 °F 30.17 in South 2.4 mph 4.6 mph 39 % 0.00 in 371.0 W/m2 BKN
14:12 62.0 °F 36.7 °F 30.17 in SSE 1.5 mph 9.2 mph 39 % 0.00 in 371.0 W/m2 BKN
14:17 62.2 °F 36.9 °F 30.17 in SE 1.6 mph 5.8 mph 39 % 0.00 in 272.0 W/m2 BKN
14:22 62.1 °F 37.5 °F 30.17 in ESE 1.6 mph 3.5 mph 40 % 0.00 in 239.0 W/m2 BKN
14:27 62.4 °F 37.7 °F 30.17 in South 3.5 mph 12.0 mph 40 % 0.00 in 294.0 W/m2 BKN
14:32 62.4 °F 37.1 °F 30.17 in SSE 0.6 mph 2.3 mph 39 % 0.00 in 352.0 W/m2 BKN
14:37 62.2 °F 36.9 °F 30.16 in South 2.6 mph 4.6 mph 39 % 0.00 in 478.0 W/m2 SCT
14:42 62.6 °F 37.3 °F 30.16 in SSE 0.8 mph 3.5 mph 39 % 0.00 in 645.0 W/m2 FEW
14:47 63.0 °F 37.6 °F 30.16 in East 0.3 mph 3.5 mph 39 % 0.00 in 1013.0 W/m2 CLR
14:52 63.9 °F 39.1 °F 30.16 in SW 1.3 mph 5.8 mph 40 % 0.00 in 1049.0 W/m2 CLR
14:57 64.4 °F 38.2 °F 30.16 in SE 2.0 mph 3.5 mph 38 % 0.00 in 1027.0 W/m2 CLR
15:02 64.6 °F 37.0 °F 30.16 in SE 6.3 mph 10.4 mph 36 % 0.00 in 995.0 W/m2 CLR
15:07 64.5 °F 36.9 °F 30.16 in South 7.4 mph 12.7 mph 36 % 0.00 in 668.0 W/m2 CLR
15:12 64.1 °F 38.0 °F 30.15 in SE 0.6 mph 3.5 mph 38 % 0.00 in 803.0 W/m2 CLR
15:17 64.8 °F 37.9 °F 30.15 in South 0.3 mph 1.2 mph 37 % 0.00 in 369.0 W/m2 FEW
15:22 63.8 °F 37.0 °F 30.15 in South 3.6 mph 9.2 mph 37 % 0.00 in 343.0 W/m2 BKN
15:27 63.5 °F 37.4 °F 30.15 in South 4.5 mph 11.0 mph 38 % 0.00 in 306.0 W/m2 BKN
15:32 63.2 °F 36.5 °F 30.15 in South 1.8 mph 5.8 mph 37 % 0.00 in 278.0 W/m2 BKN
15:37 62.9 °F 36.9 °F 30.15 in SSE 0.1 mph 2.3 mph 38 % 0.00 in 214.0 W/m2 BKN
15:42 62.5 °F 36.5 °F 30.15 in SSE 1.0 mph 3.5 mph 38 % 0.00 in 209.0 W/m2 BKN
15:47 62.3 °F 37.0 °F 30.15 in SE 0.9 mph 3.5 mph 39 % 0.00 in 195.0 W/m2 BKN
15:52 62.1 °F 36.2 °F 30.14 in South 2.4 mph 3.5 mph 38 % 0.00 in 192.0 W/m2 BKN
15:57 62.1 °F 36.8 °F 30.14 in SSE 1.4 mph 3.5 mph 39 % 0.00 in 206.0 W/m2 BKN
16:02 62.0 °F 36.7 °F 30.14 in Calm   3.5 mph 39 % 0.00 in 229.0 W/m2 BKN
16:07 62.1 °F 36.8 °F 30.14 in SE 1.1 mph 9.2 mph 39 % 0.00 in 297.0 W/m2 SCT
16:12 62.2 °F 36.3 °F 30.14 in East 1.3 mph 6.9 mph 38 % 0.00 in 364.0 W/m2 SCT
16:17 62.2 °F 36.9 °F 30.14 in SE 1.4 mph 9.2 mph 39 % 0.00 in 195.0 W/m2 BKN
16:22 61.9 °F 36.7 °F 30.14 in SSE 0.8 mph 2.0 mph 39 % 0.00 in 179.0 W/m2 BKN
16:27 61.5 °F 35.6 °F 30.14 in South 2.5 mph 7.0 mph 38 % 0.00 in 185.0 W/m2 BKN
16:32 61.4 °F 36.2 °F 30.14 in ESE 1.0 mph 4.6 mph 39 % 0.00 in 153.0 W/m2 OVC
16:37 61.2 °F 35.4 °F 30.14 in East 1.2 mph 4.0 mph 38 % 0.00 in 165.0 W/m2 BKN
16:42 61.2 °F 36.7 °F 30.14 in ESE 0.3 mph   40 % 0.00 in 163.0 W/m2 BKN
16:47 61.0 °F 35.8 °F 30.14 in SE 1.2 mph 1.2 mph 39 % 0.00 in 163.0 W/m2 BKN
16:52 61.1 °F 36.6 °F 30.14 in Calm   3.5 mph 40 % 0.00 in 169.0 W/m2 BKN
16:57 61.0 °F 36.5 °F 30.14 in Calm   6.9 mph 40 % 0.00 in 128.0 W/m2 OVC
17:02 60.8 °F 36.3 °F 30.13 in South 0.8 mph 3.5 mph 40 % 0.00 in 132.0 W/m2 BKN
17:08 60.7 °F 36.8 °F 30.14 in Calm   1.2 mph 41 % 0.00 in 130.0 W/m2 OVC
17:13 60.6 °F 37.4 °F 30.14 in Calm   3.5 mph 42 % 0.00 in 123.0 W/m2 OVC
17:18 60.5 °F 36.7 °F 30.14 in East 0.2 mph 2.3 mph 41 % 0.00 in 139.0 W/m2 BKN
17:23 60.4 °F 36.6 °F 30.13 in ESE 0.3 mph 1.2 mph 41 % 0.00 in 125.0 W/m2 BKN
17:28 60.2 °F 37.0 °F 30.13 in Calm     42 % 0.00 in 98.0 W/m2 OVC
17:33 60.4 °F 37.8 °F 30.13 in Calm     43 % 0.00 in 98.0 W/m2 OVC
17:38 60.3 °F 37.1 °F 30.12 in Calm     42 % 0.00 in 88.0 W/m2 OVC
17:43 60.3 °F 37.1 °F 30.12 in Calm     42 % 0.00 in 90.0 W/m2 OVC
17:48 60.2 °F 37.6 °F 30.13 in Calm     43 % 0.00 in 67.0 W/m2 OVC
17:53 60.2 °F 37.6 °F 30.12 in Calm     43 % 0.00 in 90.0 W/m2 OVC
17:58 60.0 °F 37.4 °F 30.12 in ESE 0.2 mph 2.3 mph 43 % 0.00 in 76.0 W/m2 OVC
18:03 60.1 °F 37.5 °F 30.12 in East 0.1 mph 1.2 mph 43 % 0.00 in 74.0 W/m2 OVC
18:08 60.1 °F 36.9 °F 30.12 in Calm   1.2 mph 42 % 0.00 in 83.0 W/m2 BKN
18:13 60.0 °F 37.4 °F 30.12 in South 0.8 mph 5.0 mph 43 % 0.00 in 81.0 W/m2 BKN
18:18 60.2 °F 37.6 °F 30.13 in Calm     43 % 0.00 in 72.0 W/m2 BKN
18:23 60.1 °F 37.5 °F 30.12 in ESE 0.3 mph 2.3 mph 43 % 0.00 in 79.0 W/m2 BKN
18:28 59.9 °F 36.7 °F 30.12 in ESE 0.8 mph 4.0 mph 42 % 0.00 in 70.0 W/m2 BKN
18:33 59.8 °F 36.6 °F 30.12 in SSE 1.4 mph 4.6 mph 42 % 0.00 in 67.0 W/m2 BKN
18:38 59.7 °F 35.3 °F 30.12 in South 1.7 mph 4.6 mph 40 % 0.00 in 77.0 W/m2 BKN
18:43 59.6 °F 36.5 °F 30.12 in SE 0.3 mph 1.0 mph 42 % 0.00 in 76.0 W/m2 BKN
18:48 59.5 °F 35.8 °F 30.12 in South 0.2 mph 2.3 mph 41 % 0.00 in 74.0 W/m2 BKN
18:53 59.4 °F 36.3 °F 30.11 in East 0.7 mph 3.5 mph 42 % 0.00 in 67.0 W/m2 BKN
18:58 59.3 °F 36.2 °F 30.11 in SE 1.7 mph 5.8 mph 42 % 0.00 in 60.0 W/m2 BKN
19:03 59.0 °F 36.5 °F 30.11 in SE 1.4 mph 3.5 mph 43 % 0.00 in 53.0 W/m2 BKN
19:08 58.8 °F 36.9 °F 30.11 in ESE 0.7 mph 3.5 mph 44 % 0.00 in 49.0 W/m2 BKN
19:13 58.7 °F 36.8 °F 30.11 in South 0.1 mph 5.8 mph 44 % 0.00 in 40.0 W/m2 BKN
19:18 58.4 °F 36.6 °F 30.11 in SE 0.3 mph 2.0 mph 44 % 0.00 in 35.0 W/m2 BKN
19:23 58.1 °F 36.9 °F 30.11 in Calm   2.3 mph 45 % 0.00 in 32.0 W/m2 BKN
19:28 57.9 °F 37.2 °F 30.11 in SE 3.0 mph 6.0 mph 46 % 0.00 in 26.0 W/m2 BKN
19:33 57.6 °F 37.0 °F 30.11 in ESE 0.8 mph   46 % 0.00 in 21.0 W/m2 BKN
19:38 57.4 °F 36.8 °F 30.11 in ESE 1.0 mph 3.5 mph 46 % 0.00 in 18.0 W/m2 BKN
19:43 57.2 °F 36.6 °F 30.11 in East 1.6 mph 3.5 mph 46 % 0.00 in 12.0 W/m2 BKN
19:48 57.0 °F 37.0 °F 30.10 in SE 0.4 mph 3.0 mph 47 % 0.00 in 9.0 W/m2 BKN
19:53 56.8 °F 36.2 °F 30.10 in SE 0.7 mph 3.5 mph 46 % 0.00 in 5.0 W/m2 BKN
19:58 56.6 °F 36.6 °F 30.10 in Calm   1.2 mph 47 % 0.00 in 0.0 W/m2 CLR
20:03 56.4 °F 36.4 °F 30.10 in SE 0.5 mph 3.5 mph 47 % 0.00 in 0.0 W/m2 CLR
20:08 56.2 °F 36.8 °F 30.09 in SE 1.2 mph 6.9 mph 48 % 0.00 in 0.0 W/m2 CLR
20:14 56.0 °F 36.6 °F 30.09 in SSE 0.2 mph 2.3 mph 48 % 0.00 in 0.0 W/m2 CLR
20:19 55.8 °F 36.9 °F 30.09 in Calm     49 % 0.00 in 0.0 W/m2 CLR
20:24 55.7 °F 37.3 °F 30.09 in ESE 1.4 mph 3.5 mph 50 % 0.00 in 0.0 W/m2 CLR
20:29 55.5 °F 37.1 °F 30.10 in Calm     50 % 0.00 in 0.0 W/m2 CLR
20:34 55.5 °F 37.7 °F 30.10 in Calm     51 % 0.00 in 0.0 W/m2 CLR
20:39 55.2 °F 37.4 °F 30.10 in ESE 0.4 mph 2.3 mph 51 % 0.00 in 0.0 W/m2 CLR
20:44 55.1 °F 37.3 °F 30.09 in Calm     51 % 0.00 in 0.0 W/m2 CLR
20:49 55.0 °F 37.7 °F 30.09 in Calm     52 % 0.00 in 0.0 W/m2 CLR
20:54 54.8 °F 37.5 °F 30.09 in SE 0.3 mph 2.3 mph 52 % 0.00 in 0.0 W/m2 CLR
20:59 54.7 °F 37.9 °F 30.09 in SSW 0.1 mph 1.2 mph 53 % 0.00 in 0.0 W/m2 CLR
21:04 54.7 °F 38.4 °F 30.10 in Calm     54 % 0.00 in 0.0 W/m2 CLR
21:09 54.5 °F 38.2 °F 30.10 in ESE 0.1 mph 2.3 mph 54 % 0.00 in 0.0 W/m2 CLR
21:14 54.4 °F 38.6 °F 30.10 in Calm     55 % 0.00 in 0.0 W/m2 CLR
21:19 54.3 °F 38.9 °F 30.10 in Calm   1.2 mph 56 % 0.00 in 0.0 W/m2 CLR
21:24 54.1 °F 38.7 °F 30.10 in ENE 1.2 mph 6.9 mph 56 % 0.00 in 0.0 W/m2 CLR
21:29 54.0 °F 39.5 °F 30.10 in Calm     58 % 0.00 in 0.0 W/m2 CLR
21:34 53.8 °F 39.8 °F 30.10 in Calm     59 % 0.00 in 0.0 W/m2 CLR
21:39 53.7 °F 40.1 °F 30.10 in Calm     60 % 0.00 in 0.0 W/m2 CLR
21:44 53.5 °F 40.4 °F 30.10 in Calm     61 % 0.00 in 0.0 W/m2 CLR
21:49 53.3 °F 40.6 °F 30.10 in Calm     62 % 0.00 in 0.0 W/m2 CLR
21:54 53.1 °F 40.4 °F 30.09 in Calm   1.2 mph 62 % 0.00 in 0.0 W/m2 CLR
21:59 53.1 °F 40.8 °F 30.09 in Calm     63 % 0.00 in 0.0 W/m2 CLR
22:04 52.9 °F 41.0 °F 30.09 in East 0.1 mph 1.2 mph 64 % 0.00 in 0.0 W/m2 CLR
22:09 52.8 °F 41.0 °F 30.09 in Calm     64 % 0.00 in 0.0 W/m2 CLR
22:14 52.7 °F 41.3 °F 30.09 in Calm     65 % 0.00 in 0.0 W/m2 CLR
22:19 52.6 °F 41.6 °F 30.08 in Calm     66 % 0.00 in 0.0 W/m2 CLR
22:24 52.5 °F 41.5 °F 30.08 in East 0.5 mph   66 % 0.00 in 0.0 W/m2 CLR
22:29 52.4 °F 41.8 °F 30.08 in Calm     67 % 0.00 in 0.0 W/m2 CLR
22:34 52.3 °F 42.0 °F 30.08 in Calm     68 % 0.00 in 0.0 W/m2 CLR
22:39 52.2 °F 42.0 °F 30.08 in ESE 0.1 mph   68 % 0.00 in 0.0 W/m2 CLR
22:44 52.2 °F 42.3 °F 30.08 in Calm     69 % 0.00 in 0.0 W/m2 CLR
22:49 52.1 °F 42.6 °F 30.08 in ESE 1.2 mph 3.5 mph 70 % 0.00 in 0.0 W/m2 CLR
22:54 52.0 °F 42.5 °F 30.08 in Calm   4.6 mph 70 % 0.00 in 0.0 W/m2 CLR
22:59 51.9 °F 42.8 °F 30.08 in ENE 0.1 mph 1.0 mph 71 % 0.00 in 0.0 W/m2 CLR
23:04 51.9 °F 43.2 °F 30.08 in Calm     72 % 0.00 in 0.0 W/m2 CLR
23:09 51.7 °F 43.0 °F 30.08 in Calm   3.5 mph 72 % 0.00 in 0.0 W/m2 CLR
23:14 51.7 °F 43.0 °F 30.08 in Calm   1.2 mph 72 % 0.00 in 0.0 W/m2 CLR
23:19 51.7 °F 43.3 °F 30.08 in Calm     73 % 0.00 in 0.0 W/m2 CLR
23:25 51.8 °F 43.4 °F 30.08 in Calm     73 % 0.00 in 0.0 W/m2 CLR
23:30 51.7 °F 43.3 °F 30.08 in Calm     73 % 0.00 in 0.0 W/m2 CLR
23:35 51.7 °F 43.3 °F 30.07 in Calm   4.0 mph 73 % 0.00 in 0.0 W/m2 CLR
23:40 51.7 °F 43.7 °F 30.07 in Calm   4.0 mph 74 % 0.00 in 0.0 W/m2 CLR
23:45 51.6 °F 43.6 °F 30.07 in Calm     74 % 0.00 in 0.0 W/m2 CLR
23:50 51.6 °F 43.6 °F 30.07 in Calm     74 % 0.00 in 0.0 W/m2 CLR
23:55 51.5 °F 43.5 °F 30.07 in Calm   8.0 mph 74 % 0.00 in 0.0 W/m2 CLR
Air Products Campus Weather
Compliments of Weather Underground - 3.5 mb